Hourly Data Report for September 30, 2017

All times are specified in Local Standard Time (LST). Add 1 hour to adjust for Daylight Saving Time where and when it is observed.

BAKER LAKE A
NUNAVUT

64°17'56.000" N
96°04'40.000" W
18.60 m
2300503
71926
YBK

Download Data

Hourly Data (September 2017)
Hourly Data Report for September 30, 2017
Temp Definition
°C
Dew Point Temp Definition
°C
Rel Hum Definition
%
Wind Dir Definition
10's deg

Wind Spd Definition
km/h
Visibility Definition
km
Stn Press Definition
kPa
Hmdx Definition


Wind Chill Definition


Weather Definition


TIME
00:00 Legend Double Dagger 0.3 -2.1 84 34 24 24.1 100.19     Mainly Clear
01:00 Legend Double Dagger 0.0 -2.7 82 34 30 24.1 100.32   -6 LegendNANA
02:00 Legend Double Dagger -0.6 -3.9 79 33 26 24.1 100.42   -7 LegendNANA
03:00 Legend Double Dagger -1.2 -3.6 84 34 26 24.1 100.54   -8 Mainly Clear
04:00 Legend Double Dagger -1.3 -4.3 80 36 33 24.1 100.66   -8 LegendNANA
05:00 Legend Double Dagger -1.6 -4.4 81 36 32 24.1 100.78   -9 LegendNANA
06:00 Legend Double Dagger -2.0 -4.5 83 36 34 32.2 100.89   -10 Mainly Clear
07:00 Legend Double Dagger -1.7 -4.9 79 1 26 24.1 101.00   -8 LegendNANA
08:00 Legend Double Dagger -2.3 -6.1 76 1 36 32.2 101.09   -10 LegendNANA
09:00 Legend Double Dagger -1.4 -6.5 68 1 36 32.2 101.23   -9 Mainly Clear
10:00 Legend Double Dagger -1.2 -6.2 69 2 25 32.2 101.34   -7 LegendNANA
11:00 Legend Double Dagger -0.6 -6.5 64 2 25 32.2 101.41   -7 LegendNANA
12:00 Legend Double Dagger 0.0 -7.9 56 4 19 32.2 101.52   -5 Mainly Clear
13:00 Legend Double Dagger 0.3 -6.9 58 4 17 32.2 101.55     LegendNANA
14:00 Legend Double Dagger 1.0 -6.7 57 5 17 32.2 101.61     LegendNANA
15:00 Legend Double Dagger 1.1 -7.4 53 5 13 32.2 101.67     Mainly Clear
16:00 Legend Double Dagger 0.3 -7.2 57 5 19 32.2 101.70     LegendNANA
17:00 Legend Double Dagger -0.4 -7.4 60 6 21 32.2 101.75   -6 LegendNANA
18:00 Legend Double Dagger -1.2 -6.6 67 7 17 32.2 101.84   -6 Mainly Clear
19:00 Legend Double Dagger -1.8 -6.0 73 6 16 24.1 101.86   -7 LegendNANA
20:00 Legend Double Dagger -2.1 -5.6 77 7 22 24.1 101.88   -8 LegendNANA
21:00 Legend Double Dagger -2.5 -5.7 79 7 23 24.1 101.91   -9 Mainly Clear
22:00 Legend Double Dagger -2.1 -5.0 80 7 25 24.1 101.94   -9 LegendNANA
23:00 Legend Double Dagger -2.1 -4.4 84 8 18 24.1 101.96   -8 LegendNANA

Notes on Data Quality.

Legend

  • E = Estimated
  • M = Missing
  • NA = Not Available
  • ‡ = Partner data that is not subject to review by the National Climate Archives
Date modified: